York, PA

10:40 PM EST on November 17, 2019 (GMT -0500)
York

Weather History for KTHV - October, 2019

Change the Weather History Date:

Wednesday, October 23, 2019

  Actual Average Record
Temperature  
Mean Temperature 50 °F -  
Max Temperature 64 °F 0 °F 77 °F (2007)
Min Temperature 37 °F - 26 °F (2008)
Degree Days  
Heating Degree Days 14    
Moisture  
Dew Point 40 °F    
Average Humidity 76    
Maximum Humidity 96    
Minimum Humidity 31    
Precipitation  
Precipitation 0.00 in - - ()
Sea Level Pressure  
Sea Level Pressure 29.99 in    
Wind  
Wind Speed 3 mph ()    
Max Wind Speed 13 mph    
Max Gust Speed 20 mph    
Visibility 7.0 miles    
Events Fog    
Averages and records for this station are not official NWS values.
T = Trace of Precipitation, MM = Missing Value Source: Averaged Metar Reports

Daily Weather History Graph

Daily Weather History Graph

Search for Another Location

Airport or City:

Astronomy

Oct. 23, 2019 Rise Set
Actual Time 7:26 AM EDT 6:16 PM EDT
Civil Twilight 6:58 AM EDT 6:44 PM EDT
Nautical Twilight 6:26 AM EDT 7:15 PM EDT
Astronomical Twilight 5:55 AM EDT 7:47 PM EDT
Moon 1:42 AM EDT (10/23) 4:05 PM EDT (10/23)
Length of Visible Light 11h 45m
Length of Day
10h 50m
Waning Crescent, 27% of the Moon is Illuminated
Oct 23
Waning Crescent
Oct 27
New
Nov 4
First Quarter
Nov 12
Full
Nov 19
Last Quarter

Hourly Weather History & Observations

Time (EDT) Temp. Windchill Dew Point Humidity Pressure Visibility Wind Dir Wind Speed Gust Speed Precip Events Conditions
12:53 AM 44.1 °F - 43.0 °F 96% 29.86 in 0.2 mi Calm Calm - N/A Fog Fog
1:30 AM 44.1 °F 42.5 °F 42.1 °F 93% 29.84 in 0.8 mi West 3.5 mph - N/A   Clear
1:53 AM 44.1 °F - 42.1 °F 93% 29.86 in 0.2 mi Calm Calm - N/A Fog Fog
2:07 AM 46.9 °F - 44.1 °F 90% 29.85 in 1.2 mi West 4.6 mph - N/A   Clear
2:10 AM 48.9 °F - 45.0 °F 86% 29.85 in 3.0 mi West 4.6 mph - N/A   Clear
2:53 AM 50.0 °F - 48.0 °F 93% 29.87 in 10.0 mi WNW 3.5 mph - N/A   Clear
3:53 AM 48.9 °F - 46.9 °F 93% 29.88 in 10.0 mi WNW 3.5 mph - N/A   Clear
4:31 AM 46.0 °F - 44.1 °F 93% 29.88 in 1.8 mi Calm Calm - N/A   Clear
4:34 AM 46.0 °F - 44.1 °F 93% 29.88 in 0.8 mi Calm Calm - N/A   Clear
4:53 AM 44.1 °F 42.5 °F 43.0 °F 96% 29.91 in 0.8 mi WNW 3.5 mph - N/A   Clear
4:56 AM 45.0 °F 43.5 °F 43.0 °F 93% 29.90 in 1.2 mi WNW 3.5 mph - N/A   Clear
5:00 AM 46.0 °F 44.8 °F 44.1 °F 93% 29.90 in 5.0 mi West 3.5 mph - N/A   Clear
5:12 AM 44.1 °F 42.5 °F 43.0 °F 96% 29.90 in 1.8 mi WNW 3.5 mph - N/A   Clear
5:28 AM 44.1 °F 42.5 °F 42.1 °F 93% 29.91 in 2.5 mi WNW 3.5 mph - N/A   Clear
5:35 AM 45.0 °F 43.5 °F 42.1 °F 90% 29.92 in 9.0 mi West 3.5 mph - N/A   Clear
5:53 AM 46.0 °F 44.8 °F 44.1 °F 93% 29.94 in 10.0 mi WNW 3.5 mph - N/A   Clear
6:53 AM 45.0 °F 42.6 °F 43.0 °F 93% 29.96 in 10.0 mi West 4.6 mph - N/A   Clear
7:53 AM 46.9 °F - 44.1 °F 90% 29.98 in 10.0 mi WNW 3.5 mph - N/A   Clear
8:53 AM 53.1 °F - 46.9 °F 80% 30.01 in 10.0 mi West 3.5 mph - N/A   Clear
9:53 AM 55.9 °F - 45.0 °F 67% 30.03 in 10.0 mi West 5.8 mph - N/A   Clear
10:53 AM 57.9 °F - 43.0 °F 58% 30.04 in 10.0 mi West 6.9 mph - N/A   Clear
11:53 AM 60.1 °F - 39.0 °F 46% 30.05 in 10.0 mi WNW 8.1 mph 17.3 mph N/A   Partly Cloudy
12:53 PM 61.0 °F - 37.0 °F 41% 30.04 in 10.0 mi West 12.7 mph - N/A   Clear
1:53 PM 62.1 °F - 37.0 °F 39% 30.04 in 10.0 mi West 11.5 mph 17.3 mph N/A   Clear
2:53 PM 64.0 °F - 36.0 °F 35% 30.04 in 10.0 mi West 10.4 mph 18.4 mph N/A   Mostly Cloudy
3:53 PM 64.0 °F - 33.1 °F 31% 30.06 in 10.0 mi West 8.1 mph 19.6 mph N/A   Clear
4:53 PM 63.0 °F - 32.0 °F 31% 30.06 in 10.0 mi West 10.4 mph - N/A   Clear
5:53 PM 60.1 °F - 32.0 °F 35% 30.09 in 10.0 mi West 6.9 mph - N/A   Clear
6:53 PM 51.1 °F - 33.1 °F 50% 30.13 in 10.0 mi Calm Calm - N/A   Clear
7:53 PM 43.0 °F - 36.0 °F 76% 30.17 in 10.0 mi Calm Calm - N/A   Clear
8:53 PM 44.1 °F 42.5 °F 35.1 °F 71% 30.19 in 10.0 mi West 3.5 mph - N/A   Clear
9:53 PM 39.0 °F - 34.0 °F 82% 30.21 in 10.0 mi Calm Calm - N/A   Clear
10:53 PM 37.9 °F - 34.0 °F 86% 30.22 in 10.0 mi Calm Calm - N/A   Clear
11:53 PM 37.0 °F - 34.0 °F 89% 30.22 in 10.0 mi Calm Calm - N/A   Clear